Location: Unspecified
(0.0000°N, 0.0000°E)
Time: 22:16:11
(UTC+00:00)

Tiros 1 - Pass Details

Date: 10 October 2020
Orbit: 630 x 663 km, 48.4° (Epoch: 30 October)

Event Time Altitude Azimuth Distance (km) Brightness Sun altitude
Rises 20:17:12 0° 282° (WNW) 2,983 11.4 -37.3°
Reaches altitude 10° 20:21:13 10° 249° (WSW) 2,074 10.4 -38.3°
Maximum altitude 20:22:48 12° 229° (SW) 1,975 10.2 -38.7°
Enters shadow 20:23:02 11° 226° (SW) 1,977 10.1 -38.7°
